Location: Piotrkow Trybunalski
(51.4000°N, 19.6830°E)
Time: 13:21:20
(UTC+02:00)

Explorer 7 - Pass Details

Date: 29 January 2023
Orbit: 478 x 656 km, 50.3° (Epoch: 01 April)

Event Time Altitude Azimuth Distance (km) Brightness Sun altitude
Rises 18:57:43 0° 283° (WNW) 2,922 11.8 -23.7°
Reaches altitude 10° 19:00:11 10° 274° (W) 2,034 10.8 -24.1°
Maximum altitude 19:04:20 31° 212° (SSW) 1,134 8.6 -24.7°
Enters shadow 19:05:43 27° 181° (S) 1,271 8.6 -24.9°
